Weather in Chervlennaya-Uzlovaya

Russia / Chechen Republic     43°26′51″N   45°58′39″E
temp.,
°C
wind,
m/s
gust,
m/s
humid.,
%
clouds,
%
prec.,
mm/h
press.,
hPa
HPBL,
m
17 april, sat
sat1700:00+11e23603 0.0 101851
03:00+10e226553 0.0 101828
06:00+11ese22686 0.0 101727
09:00+18ene225096 0.0 1017431
12:00+22nw443939 0.0 10181352
15:00+23wnw5536100 0.0 10181873
18:00+20wnw6946100 0.0 1019515
21:00+16wnw5762100 0.0 1021646
18 april, sun
sun1800:00+14nw4669100 0.0 1021431
03:00+13nnw4679100 0.0 1021368
06:00+12nw2282100 0.0 1021145
09:00+15ene2266100 0.0 1020889
12:00+20ene344763 0.0 10181311
15:00+21ene4443100 0.1 10171603
18:00+18ene4656100 0.1 1018425
21:00+14e4773100 0.2 1019292
19 april, mon
mon1900:00+12e3685100 0.0 1019175
03:00+11e2486100 0.1 1019111
06:00+11ese2680100 0.0 1018199
09:00+17e4554100 0.0 1018517
12:00+22e664441 0.0 1016886
15:00+22e674353 0.0 1015917
18:00+18e6105447 0.0 1015483
21:00+13ene496411 0.0 1015306
20 april, tue
tue2000:00+12e3867100 0.0 1014208
03:00+11e4872100 0.0 1012197
06:00+12e41170100 0.0 1010277
09:00+19e71055100 0.0 1007416
12:00+24e7944100 0.0 1005595
15:00+23e81150100 0.0 1003497
18:00+17e4764100 0.0 1005303
21:00+15wsw3681100 0.8 1010212
21 april, wed
wed2100:00+16w51172100 0.1 1011259
03:00+14w51079100 0.1 1015455
06:00+14w6978100 0.0 1018517
09:00+15wnw5773100 0.0 1019720
12:00+16wnw5658100 0.0 1019864
15:00+17wnw4457100 0.1 10191290
18:00+15wnw4667100 0.1 1020414
21:00+13w4769100 0.5 1021306